Terug naar catalogus

COSMOS 1503

ActiefNavigatieLEO
NORAD 14401·PAYLOAD·🇷🇺 Russia

Gelanceerd Oct 12, 1983 vanaf Plesetsk Cosmodrome

Loading…

Volgende Passages (komende 24 uur)

TLE

VersSource: Space-Track

Epoch: Sep 14, 2026, 09:21 UTC

1 14401U 83103A   26257.38959270  .00000070  00000-0  35011-4 0  9991
2 14401  74.0444 310.7282 0012413  46.5706 313.6476 14.33143548242269

Volg COSMOS 1503 in realtime met AllMySat

Download on the App Store